M0JUI-1 Weather Reports


Display with metric or nautical units.
time (UTC)temp
F
wind
direction
speed
MPH
gust
MPH
rain 1hr
in
rain 24hr
in
rain mn
in
humidity
%
barometer
mb
20260507162051 59 273 0.0 0.0 0.00 0.00 0.00 75 1014.5
20260507161551 59 279 0.0 0.0 0.00 0.00 0.00 76 1014.5
20260507161051 59 268 0.0 0.0 0.00 0.00 0.00 76 1014.6
20260507160551 58 279 0.0 0.0 0.00 0.00 0.00 77 1014.6
20260507160051 58 81 0.0 0.0 0.00 0.00 0.00 75 1014.6
20260507155551 58 276 0.0 0.0 0.00 0.00 0.00 77 1014.5
20260507155051 58 252 0.0 0.0 0.00 0.00 0.00 77 1014.7
20260507154539 58 272 0.0 0.0 0.00 0.00 0.00 76 1014.7
20260507154039 59 272 0.0 0.0 0.00 0.00 0.00 76 1014.6
20260507153539 58 296 0.0 0.0 0.00 0.00 0.00 77 1014.7
20260507153044 58 247 0.0 0.0 0.00 0.00 0.00 76 1014.8
20260507152539 59 313 0.0 0.0 0.00 0.00 0.00 76 1014.9
20260507152039 59 300 0.0 0.0 0.00 0.00 0.00 77 1014.7
20260507151538 58 242 0.0 0.0 0.00 0.00 0.00 77 1014.8
20260507151039 58 235 0.0 0.0 0.00 0.00 0.00 77 1015.1
20260507150539 58 282 0.0 0.0 0.00 0.00 0.00 78 1015.0
20260507150040 58 234 0.0 0.0 0.00 0.00 0.00 78 1014.9
20260507145540 58 272 0.0 0.0 0.00 0.00 0.00 78 1014.9
20260507145039 59 207 0.0 0.0 0.00 0.00 0.00 77 1015.0
20260507144539 58 295 0.0 0.0 0.00 0.00 0.00 76 1014.8
20260507144040 59 277 0.0 0.0 0.00 0.00 0.00 76 1015.0
20260507143539 60 284 0.0 0.0 0.00 0.00 0.00 75 1015.2
20260507143027 60 204 0.0 0.0 0.00 0.00 0.00 76 1015.1
20260507142527 59 274 0.0 0.0 0.00 0.00 0.00 77 1015.1
20260507142027 59 240 0.0 0.0 0.00 0.00 0.00 76 1015.2
20260507141527 60 239 0.0 0.0 0.00 0.00 0.00 75 1015.2
20260507141027 60 283 0.0 0.0 0.00 0.00 0.00 75 1015.4
20260507140527 60 134 0.0 0.0 0.00 0.00 0.00 77 1015.3
20260507140030 60 296 0.0 0.0 0.00 0.00 0.00 75 1015.3
20260507135527 60 296 0.0 0.0 0.00 0.00 0.00 75 1015.4
20260507135029 60 269 0.0 0.0 0.00 0.00 0.00 77 1015.4
20260507134527 60 112 0.0 0.0 0.00 0.00 0.00 74 1015.6
20260507134027 60 282 0.0 0.0 0.00 0.00 0.00 75 1015.6
20260507133527 60 62 0.0 0.0 0.00 0.00 0.00 76 1015.5
20260507133027 60 293 0.0 0.0 0.00 0.00 0.00 77 1015.3
20260507132515 59 303 0.0 0.0 0.00 0.00 0.00 79 1015.7
20260507132020 59 310 0.0 0.0 0.00 0.00 0.00 80 1015.5
20260507131515 59 62 0.0 0.0 0.00 0.00 0.00 82 1015.7
20260507131016 58 209 0.0 0.0 0.00 0.00 0.00 83 1015.4
20260507130516 57 291 0.0 0.0 0.00 0.00 0.00 85 1015.7
20260507130008 58 287 0.0 0.0 0.00 0.00 0.00 85 1015.7
20260507125504 58 284 0.0 0.0 0.00 0.00 0.00 88 1015.7
20260507125011 58 267 0.0 0.0 0.00 0.00 0.00 86 1015.7
20260507124451 57 262 0.0 0.0 0.00 0.00 0.00 88 1015.7
20260507123951 58 291 0.0 0.0 0.00 0.00 0.00 86 1015.8
20260507123451 58 286 0.0 0.0 0.00 0.00 0.00 91 1015.7
20260507122939 58 261 0.0 0.0 0.00 0.00 0.00 91 1015.7
20260507122439 56 267 0.0 0.0 0.00 0.00 0.00 93 1015.7
20260507121939 57 242 0.0 0.0 0.00 0.00 0.00 98 1015.8
20260507121439 57 291 0.0 0.0 0.00 0.00 0.00 99 1015.8
20260507120939 57 172 0.0 0.0 0.00 0.00 0.00 99 1015.8
20260507120439 57 271 0.0 0.0 0.00 0.00 0.00 99 1015.9
20260507115939 57 20 0.0 0.0 0.00 0.00 0.00 99 1016.0
20260507115427 56 113 0.0 0.0 0.00 0.00 0.00 99 1015.9
20260507114927 56 283 0.0 0.0 0.00 0.00 0.00 99 1015.9
20260507114427 56 273 0.0 0.0 0.00 0.00 0.00 99 1016.1
20260507113927 55 263 0.0 0.0 0.00 0.00 0.00 99 1016.1
20260507113427 55 290 0.0 0.0 0.00 0.00 0.00 99 1016.0
20260507112927 55 290 0.0 0.0 0.00 0.00 0.00 99 1016.1
20260507112427 55 158 0.0 0.0 0.00 0.00 0.00 99 1016.2
20260507111928 55 306 0.0 0.0 0.00 0.00 0.00 1 1016.1
20260507111427 55 270 0.0 0.0 0.00 0.00 0.00 1 1016.3
20260507110928 54 341 0.0 0.0 0.00 0.00 0.00 1 1016.3
20260507110427 54 353 0.0 0.0 0.00 0.00 0.00 4 1016.1
20260507105927 53 43 0.0 0.0 0.00 0.00 0.00 7 1016.3
20260507105428 53 281 0.0 0.0 0.00 0.00 0.00 7 1016.1
20260507104927 53 316 0.0 0.0 0.00 0.00 0.00 11 1016.2
20260507104427 53 176 0.0 0.0 0.00 0.00 0.00 12 1016.5
20260507103927 52 103 0.0 0.0 0.00 0.00 0.00 12 1016.2
20260507103427 52 252 0.0 0.0 0.00 0.00 0.00 14 1016.3
20260507102930 52 198 0.0 0.0 0.00 0.00 0.00 13 1016.3
20260507102428 51 103 0.0 0.0 0.00 0.00 0.00 14 1016.2
20260507101927 51 294 0.0 0.0 0.00 0.00 0.00 16 1016.5
20260507101427 51 296 0.0 0.0 0.00 0.00 0.00 17 1016.5
20260507100927 51 301 0.0 0.0 0.00 0.00 0.00 18 1016.4
20260507100427 50 157 0.0 0.0 0.00 0.00 0.00 18 1016.2
20260507095927 50 89 0.0 0.0 0.00 0.00 0.00 19 1016.4
20260507095427 49 52 0.0 0.0 0.00 0.00 0.00 18 1016.3
20260507094927 49 51 0.0 0.0 0.00 0.00 0.00 19 1016.3
20260507094427 49 91 0.0 0.0 0.00 0.00 0.00 19 1016.3
20260507093915 49 285 0.0 0.0 0.00 0.00 0.00 19 1016.5
20260507093415 49 44 0.0 0.0 0.00 0.00 0.00 19 1016.4
20260507092916 49 241 0.0 0.0 0.00 0.00 0.00 20 1016.3
20260507092403 49 89 0.0 0.0 0.00 0.00 0.00 20 1016.1
20260507091904 49 263 0.0 0.0 0.00 0.00 0.00 20 1016.3
20260507091404 49 309 0.0 0.0 0.00 0.00 0.00 20 1016.3
20260507090851 48 272 0.0 0.0 0.00 0.00 0.00 20 1016.1
20260507090351 48 130 0.0 0.0 0.00 0.00 0.00 20 1016.3
20260507085851 48 286 0.0 0.0 0.00 0.00 0.00 20 1016.2
20260507085339 48 215 0.0 0.0 0.00 0.00 0.00 20 1016.5
20260507084839 48 310 0.0 0.0 0.00 0.00 0.00 19 1016.3
20260507084339 48 274 0.0 0.0 0.00 0.00 0.00 19 1016.4
20260507083839 48 144 0.0 0.0 0.00 0.00 0.00 19 1016.5
20260507083340 48 283 0.0 0.0 0.00 0.00 0.00 19 1016.3
20260507082840 48 265 0.0 0.0 0.00 0.00 0.00 18 1016.3
20260507082339 47 251 0.0 0.0 0.00 0.00 0.00 18 1016.3
20260507081827 47 310 0.0 0.0 0.00 0.00 0.00 18 1016.5
20260507081326 47 159 0.0 0.0 0.00 0.00 0.00 18 1016.2
20260507080827 47 311 0.0 0.0 0.00 0.00 0.00 18 1016.5
20260507080326 46 103 0.0 0.0 0.00 0.00 0.00 17 1016.3
20260507075828 46 358 0.0 0.0 0.00 0.00 0.00 17 1016.3
20260507075328 46 85 0.0 0.0 0.00 0.00 0.00 17 1016.2
20260507074827 46 117 0.0 0.0 0.00 0.00 0.00 16 1016.1
20260507074327 46 237 0.0 0.0 0.00 0.00 0.00 14 1016.4
20260507073827 46 54 0.0 0.0 0.00 0.00 0.00 14 1016.3
20260507073327 45 124 0.0 0.0 0.00 0.00 0.00 13 1016.3
20260507072827 45 67 0.0 0.0 0.00 0.00 0.00 11 1016.3
20260507072327 45 259 0.0 0.0 0.00 0.00 0.00 11 1016.2
20260507071827 45 110 0.0 0.0 0.00 0.00 0.00 10 1016.4
20260507071327 44 274 0.0 0.0 0.00 0.00 0.00 7 1016.2
20260507070828 44 83 0.0 0.0 0.00 0.00 0.00 8 1016.1
20260507070316 44 136 0.0 0.0 0.00 0.00 0.00 4 1016.3
20260507065815 43 119 0.0 0.0 0.00 0.00 0.00 3 1016.0
20260507065315 43 109 0.0 0.0 0.00 0.00 0.00 3 1016.1
20260507064815 43 108 0.0 0.0 0.00 0.00 0.00 1 1016.0
20260507064315 43 69 0.0 0.0 0.00 0.00 0.00 1 1016.1
20260507063815 43 168 0.0 0.0 0.00 0.00 0.00 1 1016.2
20260507063315 43 99 0.0 0.0 0.00 0.00 0.00 1 1016.2
20260507062804 43 134 0.0 0.0 0.00 0.00 0.00 1 1016.1
20260507062306 43 87 0.0 0.0 0.00 0.00 0.00 1 1016.0
20260507061804 42 79 0.0 0.0 0.00 0.00 0.00 1 1016.2
20260507061251 42 191 0.0 0.0 0.00 0.00 0.00 1 1016.0
20260507060751 42 104 0.0 0.0 0.00 0.00 0.00 1 1016.1
20260507060252 42 109 0.0 0.0 0.00 0.00 0.00 1 1016.1
20260507055739 42 101 0.0 0.0 0.00 0.00 0.00 1 1016.1
20260507055239 42 114 0.0 0.0 0.00 0.00 0.00 1 1016.1
20260507054739 42 51 0.0 0.0 0.00 0.00 0.00 1 1016.0
20260507054239 42 65 0.0 0.0 0.00 0.00 0.00 1 1016.0
20260507053739 42 101 0.0 0.0 0.00 0.00 0.00 1 1016.1
20260507053240 41 142 0.0 0.0 0.00 0.00 0.00 1 1016.1
20260507052739 41 82 0.0 0.0 0.00 0.00 0.00 1 1016.3
20260507052239 41 127 0.0 0.0 0.00 0.00 0.00 1 1015.9
20260507051740 41 165 0.0 0.0 0.00 0.00 0.00 1 1016.0
20260507051239 41 57 0.0 0.0 0.00 0.00 0.00 1 1016.1
20260507050739 41 143 0.0 0.0 0.00 0.00 0.00 1 1016.0
20260507050239 41 141 0.0 0.0 0.00 0.00 0.00 1 1016.0
20260507045739 41 109 0.0 0.0 0.00 0.00 0.00 1 1016.1
20260507045239 41 82 0.0 0.0 0.00 0.00 0.00 1 1016.0
20260507044739 40 67 0.0 0.0 0.00 0.00 0.00 1 1016.1
20260507044227 40 153 0.0 0.0 0.00 0.00 0.00 1 1016.1
20260507043727 40 119 0.0 0.0 0.00 0.00 0.00 1 1016.2
20260507043227 40 131 0.0 0.0 0.00 0.00 0.00 1 1015.9
20260507042728 40 60 0.0 0.0 0.00 0.00 0.00 1 1015.9
20260507042227 40 122 0.0 0.0 0.00 0.00 0.00 1 1015.8
20260507041727 40 36 0.0 0.0 0.00 0.00 0.00 1 1015.8
20260507041227 40 139 0.0 0.0 0.00 0.00 0.00 1 1015.8
20260507040727 40 160 0.0 0.0 0.00 0.00 0.00 1 1015.9
20260507040228 40 70 0.0 0.0 0.00 0.00 0.00 1 1015.8
20260507035727 40 159 0.0 0.0 0.00 0.00 0.00 1 1015.8
20260507035227 40 84 0.0 0.0 0.00 0.00 0.00 1 1015.9
20260507034727 40 118 0.0 0.0 0.00 0.00 0.00 1 1015.8
20260507034227 40 143 0.0 0.0 0.00 0.00 0.00 1 1015.8
20260507033728 40 76 0.0 0.0 0.00 0.00 0.00 1 1015.8
20260507033227 40 123 0.0 0.0 0.00 0.00 0.00 1 1015.9
20260507032715 40 91 0.0 0.0 0.00 0.00 0.00 1 1015.8
20260507032215 40 119 0.0 0.0 0.00 0.00 0.00 1 1016.0
20260507031715 40 98 0.0 0.0 0.00 0.00 0.00 1 1015.9
20260507031204 40 330 0.0 0.0 0.00 0.00 0.00 1 1015.9
20260507030703 41 102 0.0 0.0 0.00 0.00 0.00 1 1016.0
20260507030203 41 88 0.0 0.0 0.00 0.00 0.00 1 1016.0
20260507025651 41 205 0.0 0.0 0.00 0.00 0.00 1 1015.9
20260507025152 41 195 0.0 0.0 0.00 0.00 0.00 1 1015.8
20260507024651 41 143 0.0 0.0 0.00 0.00 0.00 1 1015.9
20260507024140 41 246 0.0 0.0 0.00 0.00 0.00 1 1015.9
20260507023639 41 113 0.0 0.0 0.00 0.00 0.00 1 1016.1
20260507023140 41 125 0.0 0.0 0.00 0.00 0.00 1 1015.9
20260507022639 41 134 0.0 0.0 0.00 0.00 0.00 1 1016.0
20260507022139 41 59 0.0 0.0 0.00 0.00 0.00 1 1015.8
20260507021639 42 136 0.0 0.0 0.00 0.00 0.00 1 1015.7
20260507021138 42 154 0.0 0.0 0.00 0.00 0.00 1 1015.9
20260507020639 42 131 0.0 0.0 0.00 0.00 0.00 1 1016.0
20260507020139 42 106 0.0 0.0 0.00 0.00 0.00 1 1015.9
20260507015639 42 89 0.0 0.0 0.00 0.00 0.00 1 1016.0
20260507015139 42 173 0.0 0.0 0.00 0.00 0.00 1 1015.9
20260507014627 42 81 0.0 0.0 0.00 0.00 0.00 1 1015.9
20260507014127 42 187 0.0 0.0 0.00 0.00 0.00 1 1016.0
20260507013627 42 112 0.0 0.0 0.00 0.00 0.00 1 1016.2
20260507013127 42 168 0.0 0.0 0.00 0.00 0.00 1 1016.1
20260507012627 42 193 0.0 0.0 0.00 0.00 0.00 1 1016.0
20260507012128 42 63 0.0 0.0 0.00 0.00 0.00 1 1016.2
20260507011627 42 188 0.0 0.0 0.00 0.00 0.00 1 1016.0
20260507011127 42 86 0.0 0.0 0.00 0.00 0.00 1 1016.1
20260507010627 42 99 0.0 0.0 0.00 0.00 0.00 1 1016.1
20260507010127 42 267 0.0 0.0 0.00 0.00 0.00 1 1016.2
20260507005627 42 80 0.0 0.0 0.00 0.00 0.00 1 1016.2
20260507005127 42 135 0.0 0.0 0.00 0.00 0.00 1 1016.2
20260507004628 42 112 0.0 0.0 0.00 0.00 0.00 1 1016.2
20260507004128 42 92 0.0 0.0 0.00 0.00 0.00 1 1016.3
20260507003628 42 127 0.0 0.0 0.00 0.00 0.00 1 1016.4
20260507003127 42 139 0.0 0.0 0.00 0.00 0.00 1 1016.2
20260507002627 42 121 0.0 0.0 0.00 0.00 0.00 1 1016.4
20260507002127 42 46 0.0 0.0 0.00 0.00 0.00 1 1016.3
20260507001627 42 145 0.0 0.0 0.00 0.00 0.00 1 1016.3
20260507001127 42 154 0.0 0.0 0.00 0.00 0.00 1 1016.2
20260507000627 42 41 0.0 0.0 0.00 0.00 0.00 99 1016.3
20260507000127 42 67 0.0 0.0 0.00 0.00 0.00 99 1016.4
20260506235627 42 108 0.0 0.0 0.00 0.00 0.00 99 1016.6
20260506235127 42 183 0.0 0.0 0.00 0.00 0.00 99 1016.4
20260506234627 42 121 0.0 0.0 0.00 0.00 0.00 99 1016.5
20260506234127 42 316 0.0 0.0 0.00 0.00 0.00 99 1016.4
20260506233627 42 83 0.0 0.0 0.00 0.00 0.00 99 1016.3
20260506233128 42 98 0.0 0.0 0.00 0.00 0.00 99 1016.4
20260506232627 42 123 0.0 0.0 0.00 0.00 0.00 99 1016.5
20260506232127 43 150 0.0 0.0 0.00 0.00 0.00 99 1016.2
20260506231627 43 50 0.0 0.0 0.00 0.00 0.00 99 1016.3
20260506231127 43 129 0.0 0.0 0.00 0.00 0.00 99 1016.2
20260506230627 43 205 0.0 0.0 0.00 0.00 0.00 99 1016.3
20260506230128 43 134 0.0 0.0 0.00 0.00 0.00 99 1016.1
20260506225627 43 160 0.0 0.0 0.00 0.00 0.00 99 1016.3
20260506225127 43 78 0.0 0.0 0.00 0.00 0.00 99 1016.1
20260506224627 44 189 0.0 0.0 0.00 0.00 0.00 99 1016.1
20260506224127 44 97 0.0 0.0 0.00 0.00 0.00 99 1016.4
20260506223627 44 120 0.0 0.0 0.00 0.00 0.00 99 1016.3
20260506223127 44 129 0.0 0.0 0.00 0.00 0.00 99 1016.2
20260506222628 44 120 0.0 0.0 0.00 0.00 0.00 99 1016.0
20260506222128 44 124 0.0 0.0 0.00 0.00 0.00 99 1016.1
20260506221627 44 76 0.0 0.0 0.00 0.00 0.00 99 1016.3
20260506221115 44 93 0.0 0.0 0.00 0.00 0.00 99 1016.2
20260506220618 44 92 0.0 0.0 0.00 0.00 0.00 99 1016.4
20260506220115 44 165 0.0 0.0 0.00 0.00 0.00 99 1016.4
20260506215603 44 121 0.0 0.0 0.00 0.00 0.00 99 1016.2
20260506215103 44 147 0.0 0.0 0.00 0.00 0.00 99 1016.2
20260506214603 44 1 0.0 0.0 0.00 0.00 0.00 99 1016.2
20260506214051 44 39 0.0 0.0 0.00 0.00 0.00 99 1016.3
20260506213551 44 111 0.0 0.0 0.00 0.00 0.00 99 1016.1
20260506213051 44 59 0.0 0.0 0.00 0.00 0.00 99 1016.0
20260506212539 44 189 0.0 0.0 0.00 0.00 0.00 99 1015.9
20260506212039 44 111 0.0 0.0 0.00 0.00 0.00 1 1016.2
20260506211539 44 153 0.0 0.0 0.00 0.00 0.00 1 1016.0
20260506211039 44 76 0.0 0.0 0.00 0.00 0.00 1 1015.9
20260506210539 44 254 0.0 0.0 0.00 0.00 0.00 1 1015.9
20260506210039 44 80 0.0 0.0 0.00 0.00 0.00 1 1015.9
20260506205544 44 260 0.0 0.0 0.00 0.00 0.00 1 1015.9
20260506205039 44 160 0.0 0.0 0.00 0.00 0.00 1 1015.8
20260506204539 45 98 0.0 0.0 0.00 0.00 0.00 1 1015.9
20260506204039 45 142 0.0 0.0 0.00 0.00 0.00 1 1015.9
20260506203539 44 23 0.0 0.0 0.00 0.00 0.00 1 1015.7
20260506203039 45 127 0.0 0.0 0.00 0.00 0.00 1 1015.8
20260506202539 45 6 0.0 0.0 0.00 0.00 0.00 1 1015.7
20260506202039 45 342 0.0 0.0 0.00 0.00 0.00 2 1015.7
20260506201539 45 267 0.0 0.0 0.00 0.00 0.00 3 1015.4
20260506201039 46 268 0.0 0.0 0.00 0.00 0.00 4 1015.5
20260506200540 46 352 0.0 0.0 0.00 0.00 0.00 4 1015.4
20260506200040 46 183 0.0 0.0 0.00 0.00 0.00 5 1015.5
20260506195539 46 139 0.0 0.0 0.00 0.00 0.00 5 1015.4
20260506195028 47 97 0.0 0.0 0.00 0.00 0.00 5 1015.2
20260506194527 47 123 0.0 0.0 0.00 0.00 0.00 5 1015.1
20260506194028 47 129 0.0 0.0 0.00 0.00 0.00 4 1015.1
20260506193527 47 53 0.0 0.0 0.00 0.00 0.00 4 1015.0
20260506193026 47 163 0.0 0.0 0.00 0.00 0.00 4 1015.1
20260506192527 48 157 0.0 0.0 0.00 0.00 0.00 3 1015.0
20260506192027 48 125 0.0 0.0 0.00 0.00 0.00 3 1014.8
20260506191515 48 164 0.0 0.0 0.00 0.00 0.00 2 1014.9
20260506191016 49 110 0.0 0.0 0.00 0.00 0.00 1 1015.1
20260506190515 49 85 0.0 0.0 0.00 0.00 0.00 1 1015.0
20260506190016 49 81 0.0 0.0 0.00 0.00 0.00 1 1014.9
20260506185515 49 75 0.0 0.0 0.00 0.00 0.00 1 1015.0
20260506185015 49 118 0.0 0.0 0.00 0.00 0.00 1 1014.8
20260506184515 49 76 0.0 0.0 0.00 0.00 0.00 1 1014.9
20260506184010 49 98 0.0 0.0 0.00 0.00 0.00 99 1014.7
20260506183503 50 75 0.0 0.0 0.00 0.00 0.00 99 1014.8
20260506183007 50 32 0.0 0.0 0.00 0.00 0.00 99 1014.9
20260506182451 51 100 0.0 0.0 0.00 0.00 0.00 99 1014.8
20260506181951 51 128 0.0 0.0 0.00 0.00 0.00 99 1015.0
20260506181451 51 91 0.0 0.0 0.00 0.00 0.00 99 1014.8
20260506180939 51 109 0.0 0.0 0.00 0.00 0.00 99 1014.7
20260506180439 50 117 0.0 0.0 0.00 0.00 0.00 99 1014.9
20260506175939 50 112 0.0 0.0 0.00 0.00 0.00 99 1014.8
20260506175427 50 160 0.0 0.0 0.00 0.00 0.00 99 1014.6
20260506174928 51 87 0.0 0.0 0.00 0.00 0.00 99 1014.8
20260506174427 51 52 0.0 0.0 0.00 0.00 0.00 99 1014.8
20260506173927 51 102 0.0 0.0 0.00 0.00 0.00 99 1014.6
20260506173427 51 145 0.0 0.0 0.00 0.00 0.00 97 1014.8
20260506172927 52 155 0.0 0.0 0.00 0.00 0.00 97 1014.7
20260506172427 52 109 0.0 0.0 0.00 0.00 0.00 97 1014.8
20260506171927 52 84 0.0 0.0 0.00 0.00 0.00 96 1014.5
20260506171427 53 72 0.0 0.0 0.00 0.00 0.00 95 1014.7
20260506170927 52 181 0.0 0.0 0.00 0.00 0.00 94 1014.7
20260506170427 52 181 0.0 0.0 0.00 0.00 0.00 94 1014.6
20260506165915 52 106 0.0 0.0 0.00 0.00 0.00 91 1014.7
20260506165415 52 65 0.0 0.0 0.00 0.00 0.00 91 1014.8
20260506164851 52 94 0.0 0.0 0.00 0.00 0.00 89 1014.5
20260506164351 53 86 0.0 0.0 0.00 0.00 0.00 87 1014.6
20260506163851 53 63 0.0 0.0 0.00 0.00 0.00 85 1014.7
20260506163339 54 124 0.0 0.0 0.00 0.00 0.00 77 1014.5
20260506162839 53 126 0.0 0.0 0.00 0.00 0.00 76 1014.8
20260506162339 53 75 0.0 0.0 0.00 0.00 0.00 77 1014.8